When you browse on this site, cookies collect data to enhance your experience and personalize the content and advertising you see.
Visit our Privacy Policy to learn more. By continuing to use the site, you agree to this use of cookies and data.
  • In United Kingdom
  • List of Countries
  • For 7 days
  • Water Temperature
  • Satellite Maps
  • Weather Map
  • Weather Widgets
  • user-avatar
    Login

    Hourly Weather Ghanzi

    Today, 23 January, Wednesday

    Time Temperature Precipitation Wind Pressure Humidity
    00:00 +15°C° 0 mm 2 mps 714 mmHg 21%
    01:00 +14°C° 0 mm 2 mps 713 mmHg 22%
    02:00 +14°C° 0 mm 2 mps 713 mmHg 22%
    03:00 +13°C° 0 mm 2 mps 713 mmHg 22%
    04:00 +13°C° 0 mm 2 mps 712 mmHg 22%
    05:00 +14°C° 0 mm 2 mps 712 mmHg 21%
    06:00 +14°C° 0 mm 2 mps 712 mmHg 20%
    07:00 +15°C° 0 mm 1 mps 713 mmHg 18%
    08:00 +19°C° 0 mm 1 mps 713 mmHg 16%
    09:00 +20°C° 0 mm 2 mps 713 mmHg 13%
    10:00 +24°C° 0 mm 2 mps 713 mmHg 11%
    11:00 +26°C° 0 mm 3 mps 713 mmHg 11%
    12:00 +28°C° 0 mm 4 mps 712 mmHg 10%
    13:00 +30°C° 0 mm 4 mps 712 mmHg 10%
    14:00 +30°C° 0 mm 4 mps 712 mmHg 10%
    15:00 +32°C° 0 mm 4 mps 711 mmHg 10%
    16:00 +32°C° 0 mm 4 mps 711 mmHg 11%
    17:00 +28°C° 0 mm 3 mps 710 mmHg 13%
    18:00 +26°C° 0 mm 3 mps 710 mmHg 15%
    19:00 +24°C° 0 mm 2 mps 710 mmHg 17%
    20:00 +22°C° 0 mm 3 mps 711 mmHg 18%
    21:00 +22°C° 0 mm 4 mps 711 mmHg 19%
    22:00 +21°C° 0 mm 4 mps 712 mmHg 20%
    23:00 +20°C° 0 mm 5 mps 712 mmHg 18%

    Tomorrow, 24 January, Thursday

    Time Temperature Precipitation Wind Pressure Humidity
    00:00 +17°C° 0 mm 5 mps 712 mmHg 16%
    01:00 +16°C° 0 mm 6 mps 712 mmHg 14%
    02:00 +15°C° 0 mm 6 mps 712 mmHg 17%
    03:00 +14°C° 0 mm 6 mps 713 mmHg 20%
    04:00 +13°C° 0 mm 6 mps 713 mmHg 24%
    05:00 +13°C° 0 mm 5 mps 713 mmHg 26%
    06:00 +13°C° 0 mm 5 mps 714 mmHg 29%
    07:00 +12°C° 0 mm 5 mps 714 mmHg 32%
    08:00 +14°C° 0 mm 6 mps 715 mmHg 28%
    09:00 +16°C° 0 mm 6 mps 715 mmHg 25%
    10:00 +17°C° 0 mm 7 mps 716 mmHg 21%
    11:00 +20°C° 0 mm 6 mps 715 mmHg 19%
    12:00 +21°C° 0 mm 5 mps 715 mmHg 16%
    13:00 +22°C° 0 mm 5 mps 714 mmHg 14%
    14:00 +22°C° 0 mm 4 mps 714 mmHg 14%
    15:00 +23°C° 0 mm 4 mps 713 mmHg 13%
    16:00 +23°C° 0 mm 4 mps 713 mmHg 13%
    17:00 +21°C° 0 mm 4 mps 713 mmHg 14%
    18:00 +19°C° 0 mm 3 mps 713 mmHg 16%
    19:00 +17°C° 0 mm 3 mps 713 mmHg 17%
    20:00 +17°C° 0 mm 3 mps 713 mmHg 18%
    21:00 +16°C° 0 mm 3 mps 713 mmHg 18%
    22:00 +14°C° 0 mm 3 mps 713 mmHg 19%
    23:00 +15°C° 0 mm 2 mps 713 mmHg 19%

    Day after tomorrow, 25 January, Friday

    Time Temperature Precipitation Wind Pressure Humidity
    00:00 +15°C° 0 mm 2 mps 713 mmHg 19%
    01:00 +15°C° 0 mm 2 mps 713 mmHg 19%
    02:00 +14°C° 0 mm 2 mps 712 mmHg 19%
    03:00 +14°C° 0 mm 2 mps 712 mmHg 20%
    04:00 +14°C° 0 mm 2 mps 712 mmHg 20%
    05:00 +14°C° 0 mm 2 mps 712 mmHg 20%
    06:00 +14°C° 0 mm 2 mps 713 mmHg 20%
    07:00 +14°C° 0 mm 2 mps 713 mmHg 20%
    08:00 +16°C° 0 mm 2 mps 713 mmHg 18%
    09:00 +20°C° 0 mm 1 mps 714 mmHg 15%
    10:00 +22°C° 0 mm 1 mps 714 mmHg 13%
    11:00 +24°C° 0 mm 1 mps 714 mmHg 12%
    12:00 +25°C° 0 mm 1 mps 713 mmHg 11%
    13:00 +27°C° 0 mm 1 mps 712 mmHg 10%
    14:00 +27°C° 0 mm 1 mps 712 mmHg 10%
    15:00 +27°C° 0 mm 1 mps 712 mmHg 9%
    16:00 +27°C° 0 mm 2 mps 711 mmHg 9%
    17:00 +26°C° 0 mm 2 mps 712 mmHg 10%
    18:00 +24°C° 0 mm 3 mps 712 mmHg 11%
    19:00 +21°C° 0 mm 4 mps 712 mmHg 12%
    20:00 +21°C° 0 mm 4 mps 712 mmHg 13%
    21:00 +20°C° 0 mm 4 mps 713 mmHg 13%
    22:00 +20°C° 0 mm 4 mps 713 mmHg 13%
    23:00 +19°C° 0 mm 4 mps 713 mmHg 13%

    26 January, Saturday

    Time Temperature Precipitation Wind Pressure Humidity
    00:00 +19°C° 0 mm 4 mps 713 mmHg 13%
    01:00 +18°C° 0 mm 4 mps 713 mmHg 13%
    02:00 +17°C° 0 mm 4 mps 713 mmHg 14%
    03:00 +15°C° 0 mm 4 mps 713 mmHg 16%
    04:00 +14°C° 0 mm 4 mps 713 mmHg 17%
    05:00 +14°C° 0 mm 4 mps 713 mmHg 18%
    06:00 +14°C° 0 mm 4 mps 713 mmHg 18%
    07:00 +14°C° 0 mm 4 mps 714 mmHg 19%
    08:00 +16°C° 0 mm 5 mps 714 mmHg 17%
    09:00 +19°C° 0 mm 5 mps 715 mmHg 16%
    10:00 +21°C° 0 mm 6 mps 716 mmHg 14%
    11:00 +22°C° 0 mm 6 mps 715 mmHg 13%
    12:00 +23°C° 0 mm 6 mps 714 mmHg 12%
    13:00 +25°C° 0 mm 5 mps 714 mmHg 11%
    14:00 +25°C° 0 mm 5 mps 714 mmHg 11%
    15:00 +25°C° 0 mm 5 mps 713 mmHg 11%
    16:00 +25°C° 0 mm 5 mps 713 mmHg 12%
    17:00 +22°C° 0 mm 4 mps 713 mmHg 14%
    18:00 +20°C° 0 mm 4 mps 714 mmHg 16%
    19:00 +18°C° 0 mm 4 mps 714 mmHg 19%
    20:00 +17°C° 0 mm 4 mps 714 mmHg 21%
    21:00 +17°C° 0 mm 4 mps 714 mmHg 23%
    22:00 +15°C° 0 mm 4 mps 715 mmHg 25%
    23:00 +14°C° 0 mm 4 mps 714 mmHg 27%

    27 January, Sunday

    Time Temperature Precipitation Wind Pressure Humidity
    00:00 +13°C° 0 mm 4 mps 714 mmHg 28%
    01:00 +12°C° 0 mm 5 mps 714 mmHg 30%
    02:00 +12°C° 0 mm 5 mps 714 mmHg 29%
    03:00 +10°C° 0 mm 5 mps 714 mmHg 29%
    04:00 +10°C° 0 mm 5 mps 714 mmHg 28%
    05:00 +9°C° 0 mm 5 mps 715 mmHg 26%
    06:00 +9°C° 0 mm 5 mps 715 mmHg 24%
    07:00 +10°C° 0 mm 4 mps 716 mmHg 22%
    08:00 +13°C° 0 mm 5 mps 717 mmHg 19%
    09:00 +15°C° 0 mm 6 mps 717 mmHg 16%
    10:00 +17°C° 0 mm 7 mps 717 mmHg 13%
    11:00 +20°C° 0 mm 7 mps 717 mmHg 12%
    12:00 +21°C° 0 mm 7 mps 716 mmHg 11%
    13:00 +22°C° 0 mm 7 mps 716 mmHg 11%
    14:00 +22°C° 0 mm 7 mps 715 mmHg 11%
    15:00 +21°C° 0 mm 7 mps 715 mmHg 11%
    16:00 +21°C° 0 mm 6 mps 715 mmHg 11%
    17:00 +19°C° 0 mm 6 mps 715 mmHg 12%
    18:00 +16°C° 0 mm 5 mps 715 mmHg 13%
    19:00 +15°C° 0 mm 4 mps 716 mmHg 15%
    20:00 +14°C° 0 mm 4 mps 716 mmHg 16%
    21:00 +13°C° 0 mm 4 mps 717 mmHg 17%
    22:00 +12°C° 0 mm 4 mps 717 mmHg 19%
    23:00 +11°C° 0 mm 4 mps 717 mmHg 20%

    28 January, Monday

    Time Temperature Precipitation Wind Pressure Humidity
    00:00 +11°C° 0 mm 4 mps 717 mmHg 22%
    01:00 +10°C° 0 mm 4 mps 716 mmHg 23%
    02:00 +9°C° 0 mm 3 mps 716 mmHg 24%
    03:00 +9°C° 0 mm 3 mps 716 mmHg 25%
    04:00 +8°C° 0 mm 3 mps 716 mmHg 26%
    05:00 +8°C° 0 mm 3 mps 716 mmHg 26%
    06:00 +8°C° 0 mm 3 mps 717 mmHg 26%
    07:00 +8°C° 0 mm 3 mps 717 mmHg 27%
    08:00 +11°C° 0 mm 3 mps 717 mmHg 23%
    09:00 +13°C° 0 mm 3 mps 717 mmHg 19%
    10:00 +15°C° 0 mm 4 mps 718 mmHg 15%
    11:00 +18°C° 0 mm 3 mps 717 mmHg 13%
    12:00 +19°C° 0 mm 3 mps 716 mmHg 11%
    13:00 +21°C° 0 mm 3 mps 716 mmHg 9%
    14:00 +21°C° 0 mm 3 mps 715 mmHg 9%
    15:00 +21°C° 0 mm 3 mps 715 mmHg 8%
    16:00 +22°C° 0 mm 3 mps 715 mmHg 7%
    17:00 +20°C° 0 mm 3 mps 715 mmHg 8%
    18:00 +18°C° 0 mm 3 mps 715 mmHg 9%
    19:00 +16°C° 0 mm 3 mps 715 mmHg 10%
    20:00 +14°C° 0 mm 3 mps 715 mmHg 10%
    21:00 +14°C° 0 mm 3 mps 715 mmHg 11%
    22:00 +14°C° 0 mm 2 mps 715 mmHg 11%
    23:00 +13°C° 0 mm 2 mps 715 mmHg 12%
    Show more